FW3821 Weather Reports


time (UTC)temp
C
wind
direction
speed
KPH
gust
KPH
rain 1hr
cm
rain 24hr
cm
rain mn
cm
humidity
%
barometer
mb
20260506221541 14 97 1.6 6.4 0.05 0.86 0.86 93 1006.2
20260506220040 13 317 3.2 9.7 0.05 0.86 0.86 93 1006.2
20260506214544 13 54 0.0 6.4 0.05 0.86 0.86 93 1006.3
20260506213040 13 6 1.6 9.7 0.05 0.86 0.86 94 1006.3
20260506211539 13 95 1.6 8.0 0.03 0.81 0.81 93 1006.2
20260506210037 13 79 1.6 11.3 0.05 0.81 0.81 93 1006.4
20260506204540 13 275 1.6 9.7 0.08 0.81 0.81 93 1006.4
20260506203039 13 97 1.6 8.0 0.13 0.81 0.81 94 1006.5
20260506201538 13 104 1.6 8.0 0.13 0.79 0.79 94 1006.8
20260506200038 13 37 1.6 8.0 0.18 0.76 0.76 94 1006.9
20260506194530 13 190 1.6 8.0 0.18 0.71 0.71 93 1007.0
20260506193028 13 90 1.6 9.7 0.15 0.69 0.69 93 1007.3
20260506191527 14 98 1.6 17.7 0.18 0.66 0.66 93 1007.3
20260506190026 14 126 1.6 9.7 0.18 0.58 0.58 93 1007.2
20260506184533 14 351 1.6 9.7 0.15 0.53 0.53 93 1007.3
20260506183026 14 35 1.6 6.4 0.18 0.53 0.53 93 1007.4
20260506181523 14 95 1.6 4.8 0.23 0.48 0.48 93 1007.6
20260506180026 15 25 0.0 6.4 0.25 0.41 0.41 93 1007.8
20260506174521 14 103 0.0 6.4 0.33 0.38 0.38 93 1008.0
20260506173021 14 1 0.0 4.8 0.36 0.36 0.36 93 1008.3
20260506171516 14 8 0.0 4.8 0.25 0.25 0.25 92 1008.7
20260506170015 15 8 0.0 3.2 0.15 0.15 0.15 91 1008.9
20260506164512 15 119 0.0 6.4 0.05 0.05 0.05 89 1008.9
20260506163016 15 90 0.0 4.8 0.00 0.00 0.00 87 1008.9
20260506161511 15 157 1.6 8.0 0.00 0.00 0.00 85 1009.0
20260506160009 16 173 0.0 8.0 0.00 0.00 0.00 84 1009.1
20260506154506 15 78 0.0 6.4 0.00 0.00 0.00 83 1009.3
20260506153005 15 82 0.0 4.8 0.00 0.00 0.00 85 1009.5
20260506151506 15 13 0.0 8.0 0.00 0.00 0.00 84 1009.8
20260506150005 15 74 0.0 6.4 0.00 0.00 0.00 84 1010.0
20260506144504 15 201 0.0 6.4 0.00 0.00 0.00 83 1009.8
20260506143004 15 13 0.0 4.8 0.00 0.00 0.00 83 1009.9
20260506141503 15 90 1.6 9.7 0.00 0.00 0.00 83 1009.8
20260506140003 15 79 3.2 11.3 0.00 0.00 0.00 83 1009.9
20260506134504 15 155 6.4 16.1 0.00 0.00 0.00 81 1009.5
20260506133002 15 91 1.6 8.0 0.00 0.00 0.00 81 1009.6
20260506131604 15 1 0.0 9.7 0.00 0.00 0.00 82 1009.4
20260506130131 15 34 1.6 9.7 0.00 0.00 0.00 83 1009.7
20260506124559 14 289 1.6 12.9 0.00 0.00 0.00 85 1009.9
20260506123053 13 103 0.0 4.8 0.00 0.00 0.00 87 1010.2
20260506121553 13 296 0.0 8.0 0.00 0.00 0.00 87 1010.1
20260506120056 13 126 1.6 9.7 0.00 0.00 0.00 88 1010.2
20260506114552 12 79 0.0 6.4 0.00 0.00 0.00 89 1009.9
20260506113055 12 167 0.0 8.0 0.00 0.00 0.00 90 1010.1
20260506111549 12 79 1.6 6.4 0.00 0.00 0.00 90 1009.9
20260506110055 11 123 1.6 8.0 0.00 0.00 0.00 91 1010.1
20260506104553 11 32 0.0 6.4 0.00 0.00 0.00 91 1010.2
20260506103055 11 87 0.0 11.3 0.00 0.00 0.00 92 1010.0
20260506101556 11 46 0.0 3.2 0.00 0.00 0.00 92 1010.0
20260506094544 11 82 0.0 6.4 0.00 0.00 0.00 91 1009.7
20260506093047 11 39 1.6 8.0 0.00 0.00 0.00 91 1009.7
20260506091541 11 95 1.6 6.4 0.00 0.00 0.00 90 1009.9
20260506090040 11 158 1.6 9.7 0.00 0.00 0.00 89 1009.9
20260506084559 11 158 3.2 9.7 0.00 0.00 0.00 88 1009.9
20260506083038 11 151 1.6 9.7 0.00 0.00 0.00 87 1010.0
20260506081541 11 124 3.2 9.7 0.00 0.00 0.00 86 1010.0
20260506073041 12 105 0.0 3.2 0.00 0.00 0.00 83 1010.0
20260506071530 12 68 0.0 4.8 0.00 0.00 0.00 82 1010.2
20260506061524 13 113 1.6 4.8 0.00 0.00 0.00 79 1010.0
20260506044538 13 110 1.6 11.3 0.00 0.00 0.00 75 1010.4
20260506043012 14 47 1.6 6.4 0.00 0.00 0.00 75 1010.3
20260506041510 14 39 1.6 6.4 0.00 0.00 0.00 74 1010.2
20260506040008 14 105 1.6 11.3 0.00 0.00 0.00 74 1010.4
20260506034520 15 115 0.0 6.4 0.00 0.00 0.00 73 1010.3
20260506033008 15 124 1.6 11.3 0.00 0.00 0.00 72 1010.4
20260506031507 15 338 0.0 8.0 0.00 0.00 0.00 72 1010.2
20260506030007 15 84 4.8 16.1 0.00 0.00 0.00 71 1010.3
20260506024507 16 118 0.0 4.8 0.00 0.00 0.00 70 1010.3
20260506023005 16 123 0.0 6.4 0.00 0.00 0.00 70 1010.5
20260506021505 16 105 0.0 6.4 0.00 0.00 0.00 68 1010.4
20260506020005 16 17 1.6 8.0 0.00 0.00 0.00 68 1010.4
20260506014504 16 86 0.0 9.7 0.00 0.00 0.00 68 1010.3
20260506013003 17 219 1.6 8.0 0.00 0.00 0.00 68 1010.3
20260506011507 17 122 0.0 4.8 0.00 0.00 0.00 68 1010.1
20260506010005 17 257 0.0 1.6 0.00 0.00 0.00 66 1010.0
20260506004503 17 146 0.0 1.6 0.00 0.00 0.00 67 1010.0
20260506003002 17 138 0.0 1.6 0.00 0.00 0.00 67 1010.0
20260506001501 18 139 0.0 0.0 0.00 0.00 0.00 65 1009.9
20260506000000 18 139 0.0 1.6 0.00 0.00 0.00 63 1009.9
20260505234637 20 99 0.0 3.2 0.00 0.00 0.00 61 1009.6
20260505233112 20 257 1.6 9.7 0.00 0.00 0.00 54 1009.1
20260505231601 21 298 3.2 9.7 0.00 0.00 0.00 51 1008.1
20260505224558 22 275 3.2 14.5 0.00 0.00 0.00 47 1007.6
20260505223057 22 41 4.8 17.7 0.00 0.00 0.00 47 1007.4